When you browse on this site, cookies collect data to enhance your experience and personalize the content and advertising you see.
Visit our Privacy Policy to learn more. By continuing to use the site, you agree to this use of cookies and data.
  • In Switzerland
  • List of Countries
  • For 7 days
  • Water Temperature
  • Satellite Maps
  • Weather Map
  • Weather Widgets
  • user-avatar
    Login

    Hourly Weather Pinang

    Today, 24 March, Sunday

    Time Temperature Precipitation Wind Pressure Humidity
    00:00 +26°C° 0 mm 0 mps 755 mmHg 87%
    01:00 +25°C° 0 mm 0 mps 755 mmHg 90%
    02:00 +25°C° 0 mm 0 mps 755 mmHg 91%
    03:00 +25°C° 0 mm 0 mps 754 mmHg 93%
    04:00 +24°C° 0 mm 0 mps 754 mmHg 94%
    05:00 +25°C° 0 mm 0 mps 754 mmHg 93%
    06:00 +25°C° 0 mm 0 mps 755 mmHg 92%
    07:00 +26°C° 0 mm 0 mps 755 mmHg 87%
    08:00 +28°C° 0 mm 0 mps 755 mmHg 76%
    09:00 +33°C° 0 mm 1 mps 755 mmHg 65%
    10:00 +35°C° 0 mm 1 mps 755 mmHg 54%
    11:00 +35°C° 0 mm 1 mps 755 mmHg 52%
    12:00 +36°C° 0 mm 2 mps 755 mmHg 51%
    13:00 +37°C° 0 mm 2 mps 754 mmHg 50%
    14:00 +36°C° 0.1 mm 2 mps 754 mmHg 52%
    15:00 +36°C° 0.1 mm 2 mps 753 mmHg 55%
    16:00 +35°C° 0.1 mm 3 mps 753 mmHg 57%
    17:00 +32°C° 0.5 mm 2 mps 753 mmHg 67%
    18:00 +30°C° 0.5 mm 2 mps 753 mmHg 76%
    19:00 +28°C° 0.5 mm 1 mps 754 mmHg 86%
    20:00 +28°C° 0 mm 1 mps 754 mmHg 87%
    21:00 +27°C° 0 mm 1 mps 755 mmHg 87%
    22:00 +25°C° 0 mm 0 mps 755 mmHg 88%
    23:00 +25°C° 0.4 mm 0 mps 755 mmHg 90%

    Tomorrow, 25 March, Monday

    Time Temperature Precipitation Wind Pressure Humidity
    00:00 +25°C° 0.4 mm 0 mps 755 mmHg 91%
    01:00 +24°C° 0.4 mm 0 mps 755 mmHg 93%
    02:00 +24°C° 0.1 mm 0 mps 755 mmHg 93%
    03:00 +24°C° 0.1 mm 0 mps 754 mmHg 94%
    04:00 +24°C° 0.1 mm 0 mps 754 mmHg 94%
    05:00 +24°C° 0.1 mm 0 mps 754 mmHg 93%
    06:00 +25°C° 0.1 mm 0 mps 754 mmHg 92%
    07:00 +25°C° 0.1 mm 0 mps 755 mmHg 91%
    08:00 +29°C° 0 mm 1 mps 755 mmHg 78%
    09:00 +32°C° 0 mm 1 mps 756 mmHg 65%
    10:00 +35°C° 0 mm 1 mps 756 mmHg 52%
    11:00 +36°C° 0.1 mm 2 mps 756 mmHg 51%
    12:00 +36°C° 0.1 mm 2 mps 755 mmHg 51%
    13:00 +36°C° 0.1 mm 3 mps 755 mmHg 51%
    14:00 +36°C° 0.1 mm 3 mps 754 mmHg 53%
    15:00 +35°C° 0.1 mm 3 mps 754 mmHg 55%
    16:00 +35°C° 0.1 mm 3 mps 753 mmHg 57%
    17:00 +33°C° 0.2 mm 3 mps 754 mmHg 66%
    18:00 +30°C° 0.2 mm 2 mps 754 mmHg 75%
    19:00 +29°C° 0.2 mm 2 mps 754 mmHg 84%
    20:00 +28°C° 1.2 mm 2 mps 755 mmHg 87%
    21:00 +27°C° 1.2 mm 2 mps 756 mmHg 90%
    22:00 +27°C° 1.2 mm 1 mps 756 mmHg 93%
    23:00 +27°C° 1 mm 1 mps 756 mmHg 94%

    Day after tomorrow, 26 March, Tuesday

    Time Temperature Precipitation Wind Pressure Humidity
    00:00 +27°C° 1 mm 1 mps 756 mmHg 94%
    01:00 +26°C° 1 mm 1 mps 756 mmHg 95%
    02:00 +26°C° 0 mm 1 mps 755 mmHg 95%
    03:00 +26°C° 0 mm 1 mps 755 mmHg 96%
    04:00 +24°C° 0 mm 0 mps 754 mmHg 96%
    05:00 +24°C° 0 mm 0 mps 755 mmHg 95%
    06:00 +27°C° 0 mm 1 mps 755 mmHg 95%
    07:00 +27°C° 0 mm 1 mps 756 mmHg 94%
    08:00 +29°C° 0.1 mm 1 mps 756 mmHg 85%
    09:00 +31°C° 0.1 mm 2 mps 757 mmHg 75%
    10:00 +34°C° 0.1 mm 2 mps 757 mmHg 65%
    11:00 +35°C° 0.6 mm 2 mps 756 mmHg 64%
    12:00 +35°C° 0.6 mm 3 mps 756 mmHg 62%
    13:00 +36°C° 0.6 mm 3 mps 755 mmHg 60%
    14:00 +35°C° 0.4 mm 3 mps 754 mmHg 62%
    15:00 +35°C° 0.4 mm 3 mps 754 mmHg 64%
    16:00 +34°C° 0.4 mm 3 mps 753 mmHg 66%
    17:00 +33°C° 0 mm 3 mps 754 mmHg 73%
    18:00 +30°C° 0 mm 2 mps 754 mmHg 80%
    19:00 +28°C° 0 mm 2 mps 755 mmHg 87%
    20:00 +28°C° 0 mm 2 mps 755 mmHg 89%
    21:00 +28°C° 0 mm 2 mps 756 mmHg 91%
    22:00 +27°C° 0 mm 2 mps 757 mmHg 93%
    23:00 +27°C° 0 mm 2 mps 756 mmHg 93%

    27 March, Wednesday

    Time Temperature Precipitation Wind Pressure Humidity
    00:00 +27°C° 0 mm 2 mps 756 mmHg 94%
    01:00 +27°C° 0 mm 2 mps 756 mmHg 94%
    02:00 +27°C° 0 mm 2 mps 755 mmHg 94%
    03:00 +26°C° 0 mm 1 mps 755 mmHg 95%
    04:00 +26°C° 0 mm 1 mps 755 mmHg 95%
    05:00 +26°C° 0 mm 1 mps 755 mmHg 94%
    06:00 +27°C° 0 mm 1 mps 756 mmHg 93%
    07:00 +27°C° 0 mm 1 mps 756 mmHg 92%
    08:00 +29°C° 0 mm 1 mps 757 mmHg 79%
    09:00 +32°C° 0 mm 1 mps 757 mmHg 67%
    10:00 +34°C° 0 mm 1 mps 757 mmHg 55%
    11:00 +35°C° 0.3 mm 2 mps 757 mmHg 57%
    12:00 +35°C° 0.3 mm 2 mps 756 mmHg 58%
    13:00 +36°C° 0.3 mm 3 mps 755 mmHg 59%
    14:00 +35°C° 0.2 mm 3 mps 754 mmHg 58%
    15:00 +35°C° 0.2 mm 3 mps 754 mmHg 57%
    16:00 +35°C° 0.2 mm 3 mps 753 mmHg 56%
    17:00 +33°C° 0 mm 3 mps 754 mmHg 63%
    18:00 +31°C° 0 mm 2 mps 754 mmHg 71%
    19:00 +29°C° 0 mm 2 mps 755 mmHg 78%
    20:00 +29°C° 0 mm 2 mps 755 mmHg 80%
    21:00 +28°C° 0 mm 2 mps 756 mmHg 81%
    22:00 +28°C° 0 mm 2 mps 757 mmHg 83%
    23:00 +28°C° 0 mm 1 mps 756 mmHg 85%

    28 March, Thursday

    Time Temperature Precipitation Wind Pressure Humidity
    00:00 +28°C° 0 mm 1 mps 756 mmHg 86%
    01:00 +27°C° 0 mm 1 mps 756 mmHg 88%
    02:00 +27°C° 0.3 mm 1 mps 755 mmHg 89%
    03:00 +27°C° 0.3 mm 1 mps 755 mmHg 90%
    04:00 +27°C° 0.3 mm 1 mps 755 mmHg 92%
    05:00 +27°C° 0 mm 1 mps 755 mmHg 90%
    06:00 +27°C° 0 mm 1 mps 756 mmHg 89%
    07:00 +28°C° 0 mm 1 mps 756 mmHg 88%
    08:00 +30°C° 0 mm 1 mps 756 mmHg 77%
    09:00 +32°C° 0 mm 1 mps 757 mmHg 66%
    10:00 +35°C° 0 mm 1 mps 757 mmHg 56%
    11:00 +36°C° 0.6 mm 2 mps 756 mmHg 58%
    12:00 +35°C° 0.6 mm 2 mps 755 mmHg 59%
    13:00 +35°C° 0.6 mm 2 mps 755 mmHg 61%
    14:00 +35°C° 0.2 mm 2 mps 754 mmHg 61%
    15:00 +35°C° 0.2 mm 3 mps 754 mmHg 60%
    16:00 +35°C° 0.2 mm 3 mps 753 mmHg 60%
    17:00 +32°C° 0 mm 2 mps 754 mmHg 67%
    18:00 +31°C° 0 mm 2 mps 754 mmHg 73%
    19:00 +29°C° 0 mm 2 mps 755 mmHg 80%
    20:00 +29°C° 0 mm 1 mps 755 mmHg 81%
    21:00 +29°C° 0 mm 1 mps 756 mmHg 83%
    22:00 +28°C° 0 mm 1 mps 756 mmHg 84%
    23:00 +28°C° 0 mm 1 mps 756 mmHg 85%

    29 March, Friday

    Time Temperature Precipitation Wind Pressure Humidity
    00:00 +28°C° 0 mm 1 mps 755 mmHg 87%
    01:00 +26°C° 0 mm 0 mps 755 mmHg 88%
    02:00 +25°C° 0 mm 0 mps 755 mmHg 89%
    03:00 +25°C° 0 mm 0 mps 754 mmHg 91%
    04:00 +25°C° 0 mm 0 mps 754 mmHg 92%
    05:00 +25°C° 0 mm 0 mps 755 mmHg 91%
    06:00 +26°C° 0 mm 0 mps 755 mmHg 90%
    07:00 +26°C° 0 mm 0 mps 756 mmHg 89%
    08:00 +30°C° 0.2 mm 1 mps 756 mmHg 79%
    09:00 +32°C° 0.2 mm 1 mps 756 mmHg 70%
    10:00 +34°C° 0.2 mm 1 mps 756 mmHg 61%
    11:00 +35°C° 0.4 mm 1 mps 756 mmHg 58%
    12:00 +36°C° 0.4 mm 1 mps 755 mmHg 55%
    13:00 +37°C° 0.4 mm 1 mps 754 mmHg 52%
    14:00 +36°C° 0.9 mm 1 mps 754 mmHg 57%
    15:00 +36°C° 0.9 mm 2 mps 753 mmHg 62%
    16:00 +35°C° 0.9 mm 2 mps 753 mmHg 68%
    17:00 +32°C° 2.2 mm 2 mps 753 mmHg 76%
    18:00 +30°C° 2.2 mm 2 mps 754 mmHg 84%
    19:00 +28°C° 2.2 mm 2 mps 754 mmHg 92%
    20:00 +28°C° 0.8 mm 1 mps 755 mmHg 92%
    21:00 +28°C° 0.8 mm 1 mps 756 mmHg 92%
    22:00 +28°C° 0.8 mm 1 mps 756 mmHg 91%
    23:00 +26°C° 0.1 mm 0 mps 756 mmHg 92%
    Show more